CZ-3C DEB, 39342

Orbit data source: Space-Track

CZ-3C DEB, 39342 is space debris in HEO originally from a launch on Sun, 31 Oct 2010 UTC launched from the Xichang Space Center, China (XSC). Debris objects in space refer to the collection of defunct objects orbiting the Earth. Examples of debris include non-operational satellites, rocket bodies, and fragments generated from explosions, collisions, or faulty payload assembly.

Loading next visibility...
Identifier
39342, 2010-057G
Orbit
HEO
Country
Flag of CNCN / PRC
Related business
Manufacturer
CALT
Mission
Spacecraft
Bus & Motor
Unknown
Mass
Unknown
Launch date (UTC)
2010-10-31 (15 years ago)
Launch vehicle
Unknown
Launch site
Xichang Space Center, China (XSC)
Object type
Payload
Rocket body
Debris
Shape & HBR
Unknown shape, 0.3 m
Radar Cross Section
Small (<0.1 m²)

Expand to show TLE details & history
Last TLE update: 1 day ago

TLE from 1 day ago
0 CZ-3C DEB
1 39342U 10057G   26104.72348179 -.00000057  00000-0 -26784-3 0  9992
2 39342  19.7125 123.3235 7218369 118.7628 349.0768  2.20683446100818
Epoch: 2026-04-14T17:21Z
TLE epoch observation values (Epoch: 2026-04-14T17:21:48.826Z)
Latitude
13.65353°
Longitude
62.69195°
Altitude
3,591.05 km
Speed
7.998 km/s
True Right ascension
11h 04m 09s
True Declination
13° 35' 50"
Sunlit
Object was in daylight at epoch
Visualization orbit readout
Latitude
Unknown
Longitude
Unknown
Altitude
Unknown
Speed
Unknown
Apparent Right ascension
Unknown
Apparent Declination
Unknown
Sunlit
N/A
Visualization observer readout
Local Sidereal Time
07:23:56
Azimuth
Unknown
Elevation
Unknown
Doppler factor
Unknown
Orbital elements
Apogee altitude
36,538.401 km
Perigee altitude
555.038 km
Semi-major axis
24,924.857 km
Eccentricity
0.72184
Inclination
19.7125°
RAAN
123.3235°
Arg. of periapsis
118.7628°
True anomaly
285.26719°
Mean anomaly
349.0768°
Eccentric anomaly
325.87459°
Mean motion
0.55156 °/min
Orbital period
652.69 mins
BSTAR
-0.00026784
Loading maneuver chart data...
Computing Atmospheric mass density...
Loading historical data...
Loading historical data...
Loading historical data...
Loading historical data...
Loading historical data...
Loading historical data...
Loading historical data...

Documentation

Showing up to 5 results
|